Marshalltown, IA

8:21 AM CDT on July 20, 2017 (GMT -0500)
Marshalltown Municipal

Weather History for KMIW - June, 2014

Change the Weather History Date:

Friday, June 27, 2014

  Actual Average Record
Temperature  
Mean Temperature 73 °F 72 °F  
Max Temperature 77 °F 83 °F 100 °F (2012)
Min Temperature 68 °F 61 °F 45 °F (2017)
Degree Days  
Heating Degree Days 0 0  
Month to date heating degree days 7 28  
Since 1 June heating degree days 7 28  
Since 1 July heating degree days 7939 7012  
Cooling Degree Days 8 7  
Month to date cooling degree days 152 141  
Year to date cooling degree days 231 191  
Since 1 June cooling degree days 152 141  
Growing Degree Days 23 (Base 50)    
Moisture  
Dew Point 69 °F    
Average Humidity 91    
Maximum Humidity 100    
Minimum Humidity 82    
Precipitation  
Precipitation 0.62 in 0.17 in 1.15 in (2010)
Month to date precipitation 6.25 4.66  
Sea Level Pressure  
Sea Level Pressure 29.86 in    
Wind  
Wind Speed 11 mph (SSE)    
Max Wind Speed 24 mph    
Max Gust Speed 30 mph    
Visibility 10 miles    
Events Rain , Thunderstorm    
T = Trace of Precipitation, MM = Missing Value Source: NWS Daily Summary

Daily Weather History Graph

Daily Weather History Graph

Search for Another Location

Airport or City:

Trip Planner

Search our weather history database for the weather conditions in past years. The results will help you decide how hot, cold, wet, or windy it might be!

Date:

Astronomy

Jun. 27, 2014 Rise Set
Actual Time 5:37 AM CDT 8:51 PM CDT
Civil Twilight 5:03 AM CDT 9:26 PM CDT
Nautical Twilight 4:18 AM CDT 10:10 PM CDT
Astronomical Twilight 3:24 AM CDT 11:04 PM CDT
Moon 6:10 AM CDT (6/27) 8:55 PM CDT (6/27)
Length of Visible Light 16h 23m
Length of Day
15h 14m
New Moon, 0% of the Moon is Illuminated
Jun 27
New Moon
Jul 5
First Quarter
Jul 12
Full
Jul 18
Last Quarter
Jul 26
New

Hourly Weather History & Observations

Time (CDT) Temp. Dew Point Humidity Pressure Visibility Wind Dir Wind Speed Gust Speed Precip Events Conditions
12:53 AM 73.0 °F 69.1 °F 87% 29.88 in 10.0 mi SE 11.5 mph - N/A   Mostly Cloudy
1:42 AM 71.1 °F 69.1 °F 93% 29.89 in 10.0 mi WNW 9.2 mph - 0.01 in   Mostly Cloudy
1:47 AM 71.6 °F 69.8 °F 94% 29.89 in 10.0 mi Variable 5.8 mph - 0.01 in Thunderstorm Mostly Cloudy
1:53 AM 72.0 °F 69.1 °F 91% 29.87 in 10.0 mi West 6.9 mph - 0.01 in Rain , Thunderstorm Light Rain
2:03 AM 71.1 °F 69.1 °F 93% 29.88 in 10.0 mi NW 3.5 mph - 0.00 in Rain , Thunderstorm Light Rain
2:11 AM 71.1 °F 68.0 °F 90% 29.88 in 10.0 mi NE 4.6 mph - 0.00 in   Overcast
2:26 AM 71.1 °F 69.1 °F 93% 29.88 in 10.0 mi East 3.5 mph - 0.00 in   Mostly Cloudy
2:50 AM 69.8 °F 69.8 °F 100% 29.89 in 10.0 mi West 5.8 mph - 0.03 in Rain Light Rain
2:53 AM 70.0 °F 69.1 °F 97% 29.88 in 10.0 mi West 4.6 mph - 0.03 in Rain Light Rain
3:02 AM 70.0 °F 69.1 °F 97% 29.89 in 10.0 mi WNW 4.6 mph - 0.00 in Thunderstorm Overcast
3:23 AM 70.0 °F 69.1 °F 97% 29.87 in 10.0 mi NE 6.9 mph - 0.01 in Rain Light Rain
3:53 AM 69.1 °F 68.0 °F 96% 29.86 in 10.0 mi NE 4.6 mph - 0.01 in   Mostly Cloudy
4:53 AM 69.1 °F 68.0 °F 96% 29.86 in 10.0 mi ESE 8.1 mph - N/A   Clear
5:53 AM 70.0 °F 69.1 °F 97% 29.87 in 10.0 mi SSE 8.1 mph - N/A   Scattered Clouds
6:35 AM 70.0 °F 69.1 °F 97% 29.89 in 10.0 mi South 6.9 mph - N/A   Mostly Cloudy
6:51 AM 71.6 °F 69.8 °F 94% 29.89 in 10.0 mi South 6.9 mph - N/A   Overcast
6:53 AM 71.1 °F 69.1 °F 93% 29.87 in 10.0 mi SSW 6.9 mph - N/A   Overcast
7:06 AM 71.1 °F 69.1 °F 93% 29.88 in 10.0 mi South 4.6 mph - 0.00 in Rain Light Rain
7:53 AM 71.1 °F 69.1 °F 93% 29.87 in 10.0 mi SSE 8.1 mph - 0.01 in   Overcast
8:07 AM 71.1 °F 69.1 °F 93% 29.89 in 10.0 mi SSE 9.2 mph - N/A   Mostly Cloudy
8:53 AM 71.1 °F 66.9 °F 87% 29.88 in 10.0 mi SSE 12.7 mph - N/A   Overcast
9:53 AM 70.0 °F 66.0 °F 87% 29.88 in 10.0 mi SSE 11.5 mph - 0.00 in Rain Light Rain
10:53 AM 73.9 °F 69.1 °F 85% 29.85 in 10.0 mi SE 12.7 mph - 0.00 in   Scattered Clouds
11:10 AM 73.9 °F 69.1 °F 85% 29.88 in 10.0 mi SSE 13.8 mph - N/A Thunderstorm Mostly Cloudy
11:26 AM 73.0 °F 68.0 °F 84% 29.88 in 10.0 mi SSE 18.4 mph 25.3 mph 0.00 in Rain Light Rain
11:53 AM 71.1 °F 68.0 °F 90% 29.86 in 10.0 mi SE 12.7 mph - 0.04 in   Overcast
12:14 PM 72.0 °F 69.1 °F 91% 29.87 in 10.0 mi SSE 13.8 mph - N/A   Overcast
12:38 PM 72.0 °F 68.0 °F 87% 29.87 in 10.0 mi SSE 12.7 mph - 0.00 in Thunderstorm Overcast
12:53 PM 72.0 °F 68.0 °F 87% 29.88 in 10.0 mi SSW 11.5 mph - 0.00 in Thunderstorm Thunderstorm
1:17 PM 71.1 °F 69.1 °F 93% 29.88 in 10.0 mi SSE 19.6 mph 28.8 mph 0.49 in Rain , Thunderstorm Thunderstorms and Rain
1:53 PM 70.0 °F 66.0 °F 87% 29.83 in 10.0 mi South 10.4 mph - 0.51 in Thunderstorm Mostly Cloudy
2:17 PM 71.1 °F 68.0 °F 90% 29.84 in 10.0 mi ESE 17.3 mph - N/A   Partly Cloudy
2:53 PM 71.1 °F 68.0 °F 90% 29.81 in 10.0 mi SE 16.1 mph - 0.01 in Rain Light Rain
3:53 PM 72.0 °F 66.9 °F 84% 29.81 in 10.0 mi SSE 15.0 mph - 0.00 in Rain Light Rain
4:53 PM 71.1 °F 66.0 °F 84% 29.79 in 10.0 mi SE 10.4 mph - 0.00 in   Partly Cloudy
5:53 PM 73.0 °F 68.0 °F 84% 29.83 in 10.0 mi ESE 8.1 mph - N/A   Clear
6:53 PM 75.9 °F 71.1 °F 85% 29.79 in 10.0 mi SE 15.0 mph - N/A   Mostly Cloudy
7:53 PM 77.0 °F 72.0 °F 84% 29.80 in 10.0 mi SSE 15.0 mph - 0.00 in   Scattered Clouds
8:53 PM 75.9 °F 72.0 °F 87% 29.81 in 10.0 mi SSE 11.5 mph - N/A   Clear
9:53 PM 75.0 °F 72.0 °F 90% 29.82 in 10.0 mi SE 9.2 mph - N/A   Clear
10:53 PM 75.0 °F 71.1 °F 87% 29.81 in 10.0 mi SSE 12.7 mph - N/A   Clear
11:53 PM 73.9 °F 70.0 °F 87% 29.80 in 10.0 mi SE 15.0 mph - N/A   Clear